FIN165 EFRO-EFHK

Flight info

Callsign FIN165
Flight time 1h 5m
Altitude 35000
Route RENVI4A RENVI Y86 EVSET DCT IBOSU Y86 LUSEP LUSEP4M
Aircraft A320/M-SDE3FGHIRWY/LB1

Departure

Time 2026-05-07 10:39
Airport Rovaniemi Airport (EFRO)

Arrival

Time 2026-05-07 11:44
Airport Helsinki Vantaa Airport (EFHK)
Time Latitude Longitude Altitude Speed Heading
2026-05-07 10:04 66.55826 25.82624 626 ft 0 kts 137°
2026-05-07 10:06 66.55827 25.82624 626 ft 0 kts 137°
2026-05-07 10:26 66.55827 25.82623 626 ft 1 kts 137°
2026-05-07 10:27 66.55845 25.82583 628 ft 4 kts 138°
2026-05-07 10:27 66.55864 25.82538 625 ft 4 kts 130°
2026-05-07 10:27 66.55878 25.82483 627 ft 4 kts 100°
2026-05-07 10:27 66.55875 25.82430 628 ft 3 kts 39°
2026-05-07 10:28 66.55869 25.82419 628 ft 0 kts 37°
2026-05-07 10:32 66.55875 25.82429 628 ft 5 kts 37°
2026-05-07 10:32 66.55931 25.82537 628 ft 15 kts 37°
2026-05-07 10:32 66.56010 25.82687 628 ft 12 kts 37°
2026-05-07 10:33 66.56066 25.82794 633 ft 10 kts 37°
2026-05-07 10:33 66.56141 25.82937 636 ft 15 kts 37°
2026-05-07 10:33 66.56238 25.83120 640 ft 19 kts 37°
2026-05-07 10:33 66.56331 25.83301 638 ft 17 kts 37°
2026-05-07 10:34 66.56429 25.83488 635 ft 19 kts 37°
2026-05-07 10:34 66.56508 25.83638 636 ft 11 kts 38°
2026-05-07 10:34 66.56575 25.83767 637 ft 14 kts 37°
2026-05-07 10:34 66.56669 25.83947 631 ft 19 kts 37°
2026-05-07 10:35 66.56775 25.84148 630 ft 20 kts 37°
2026-05-07 10:35 66.56864 25.84320 625 ft 14 kts 37°
2026-05-07 10:35 66.56934 25.84453 621 ft 11 kts 37°
2026-05-07 10:35 66.56999 25.84577 621 ft 14 kts 37°
2026-05-07 10:36 66.57081 25.84733 620 ft 16 kts 37°
2026-05-07 10:36 66.57157 25.84878 620 ft 15 kts 37°
2026-05-07 10:36 66.57251 25.85056 613 ft 19 kts 37°
2026-05-07 10:36 66.57346 25.85236 604 ft 10 kts 37°
2026-05-07 10:37 66.57391 25.85313 606 ft 6 kts 26°
2026-05-07 10:37 66.57424 25.85329 606 ft 6 kts
2026-05-07 10:37 66.57485 25.85262 612 ft 8 kts 316°
2026-05-07 10:37 66.57509 25.85126 607 ft 7 kts 277°
2026-05-07 10:38 66.57469 25.84925 610 ft 22 kts 223°
2026-05-07 10:38 66.57187 25.84383 621 ft 84 kts 218°
2026-05-07 10:38 66.56567 25.83197 635 ft 138 kts 217°
2026-05-07 10:38 66.55688 25.81510 655 ft 177 kts 217°
2026-05-07 10:39 66.54646 25.80051 1470 ft 170 kts 195°
2026-05-07 10:39 66.53475 25.79477 2091 ft 179 kts 189°
2026-05-07 10:39 66.52181 25.79058 2423 ft 202 kts 187°
2026-05-07 10:39 66.50688 25.78613 2762 ft 228 kts 187°
2026-05-07 10:40 66.49050 25.78054 3315 ft 246 kts 189°
2026-05-07 10:40 66.47320 25.77421 4100 ft 254 kts 190°
2026-05-07 10:40 66.45555 25.76748 4984 ft 259 kts 190°
2026-05-07 10:40 66.43770 25.76015 5858 ft 262 kts 193°
2026-05-07 10:41 66.41989 25.75011 6747 ft 264 kts 195°
2026-05-07 10:41 66.40198 25.73874 7558 ft 267 kts 196°
2026-05-07 10:41 66.38392 25.72692 8413 ft 270 kts 197°
2026-05-07 10:41 66.36569 25.71495 9260 ft 273 kts 197°
2026-05-07 10:42 66.34723 25.70288 10087 ft 276 kts 197°
2026-05-07 10:42 66.32825 25.69055 10562 ft 292 kts 197°
2026-05-07 10:42 66.30779 25.67731 10810 ft 313 kts 196°
2026-05-07 10:42 66.28635 25.66359 11405 ft 322 kts 196°
2026-05-07 10:43 66.26453 25.64978 12136 ft 326 kts 196°
2026-05-07 10:43 66.24244 25.63586 12869 ft 329 kts 196°
2026-05-07 10:43 66.22007 25.62183 13606 ft 333 kts 196°
2026-05-07 10:43 66.19748 25.60766 14274 ft 337 kts 196°
2026-05-07 10:44 66.17468 25.59338 14931 ft 340 kts 196°
2026-05-07 10:44 66.15195 25.57917 15573 ft 342 kts 196°
2026-05-07 10:44 66.12875 25.56469 16214 ft 345 kts 196°
2026-05-07 10:44 66.10531 25.55007 16861 ft 348 kts 195°
2026-05-07 10:45 66.08163 25.53596 17482 ft 352 kts 192°
2026-05-07 10:45 66.05719 25.53032 18143 ft 355 kts 182°
2026-05-07 10:45 66.03238 25.52880 18709 ft 358 kts 182°
2026-05-07 10:45 66.00731 25.52741 19237 ft 361 kts 182°
2026-05-07 10:46 65.98206 25.52604 19780 ft 364 kts 182°
2026-05-07 10:46 65.95664 25.52462 20358 ft 366 kts 183°
2026-05-07 10:46 65.93142 25.52311 20938 ft 368 kts 182°
2026-05-07 10:46 65.90567 25.52149 21428 ft 372 kts 182°
2026-05-07 10:47 65.87963 25.51981 21950 ft 375 kts 184°
2026-05-07 10:47 65.85351 25.51818 22528 ft 377 kts 183°
2026-05-07 10:47 65.82722 25.51658 23054 ft 380 kts 183°
2026-05-07 10:47 65.80065 25.51499 23545 ft 384 kts 183°
2026-05-07 10:48 65.77389 25.51339 23934 ft 387 kts 183°
2026-05-07 10:48 65.74685 25.51176 24338 ft 389 kts 183°
2026-05-07 10:48 65.71972 25.51013 24733 ft 392 kts 183°
2026-05-07 10:48 65.69237 25.50853 25113 ft 394 kts 183°
2026-05-07 10:49 65.66485 25.50692 25497 ft 396 kts 184°
2026-05-07 10:49 65.63717 25.50530 25872 ft 399 kts 184°
2026-05-07 10:49 65.60939 25.50364 26240 ft 401 kts 184°
2026-05-07 10:49 65.58139 25.50197 26602 ft 403 kts 184°
2026-05-07 10:50 65.55329 25.50035 26968 ft 405 kts 184°
2026-05-07 10:50 65.52512 25.49878 27316 ft 407 kts 184°
2026-05-07 10:50 65.49671 25.49714 27673 ft 409 kts 185°
2026-05-07 10:50 65.46815 25.49546 28018 ft 411 kts 185°
2026-05-07 10:51 65.43942 25.49369 28360 ft 413 kts 185°
2026-05-07 10:51 65.41060 25.49190 28689 ft 415 kts 185°
2026-05-07 10:51 65.38159 25.49017 29024 ft 417 kts 185°
2026-05-07 10:51 65.35294 25.48853 29359 ft 418 kts 185°
2026-05-07 10:52 65.32377 25.48691 29674 ft 420 kts 185°
2026-05-07 10:52 65.29440 25.48534 29974 ft 422 kts 185°
2026-05-07 10:52 65.26494 25.48372 30226 ft 424 kts 185°
2026-05-07 10:52 65.23532 25.48203 30441 ft 426 kts 186°
2026-05-07 10:53 65.20556 25.48029 30651 ft 429 kts 185°
2026-05-07 10:53 65.17568 25.47853 30853 ft 431 kts 185°
2026-05-07 10:53 65.14565 25.47673 31050 ft 433 kts 185°
2026-05-07 10:53 65.11555 25.47496 31316 ft 433 kts 185°
2026-05-07 10:54 65.08545 25.47324 31578 ft 433 kts 185°
2026-05-07 10:54 65.05537 25.47154 31835 ft 432 kts 186°
2026-05-07 10:54 65.02533 25.46997 32136 ft 431 kts 186°
2026-05-07 10:54 64.99535 25.46848 32433 ft 431 kts 186°
2026-05-07 10:55 64.96534 25.46687 32706 ft 431 kts 186°
2026-05-07 10:55 64.93536 25.46511 32972 ft 431 kts 186°
2026-05-07 10:55 64.90538 25.46326 33242 ft 431 kts 186°
2026-05-07 10:55 64.87538 25.46140 33506 ft 432 kts 186°
2026-05-07 10:56 64.84537 25.45959 33768 ft 432 kts 186°
2026-05-07 10:56 64.81650 25.45793 34013 ft 433 kts 186°
2026-05-07 10:56 64.78648 25.45626 34237 ft 433 kts 186°
2026-05-07 10:56 64.75628 25.45465 34462 ft 433 kts 186°
2026-05-07 10:57 64.72617 25.45307 34676 ft 433 kts 186°
2026-05-07 10:57 64.69603 25.45144 34867 ft 433 kts 186°
2026-05-07 10:57 64.66590 25.44972 35030 ft 433 kts 186°
2026-05-07 10:57 64.63596 25.44799 35074 ft 428 kts 186°
2026-05-07 10:58 64.57659 25.44454 35076 ft 425 kts 186°
2026-05-07 10:58 64.51747 25.44054 35086 ft 425 kts 186°
2026-05-07 10:59 64.45874 25.43747 35077 ft 425 kts 186°
2026-05-07 10:59 64.39964 25.43466 35081 ft 425 kts 186°
2026-05-07 11:00 64.34056 25.43157 35060 ft 425 kts 186°
2026-05-07 11:00 64.28146 25.42835 35043 ft 424 kts 186°
2026-05-07 11:01 64.22244 25.42493 35069 ft 424 kts 186°
2026-05-07 11:01 64.16343 25.42155 35080 ft 424 kts 186°
2026-05-07 11:02 64.10436 25.41845 35072 ft 424 kts 186°
2026-05-07 11:02 64.04539 25.41531 35082 ft 424 kts 186°
2026-05-07 11:03 63.98646 25.41223 35061 ft 423 kts 186°
2026-05-07 11:03 63.92791 25.40911 35065 ft 423 kts 186°
2026-05-07 11:04 63.86903 25.40600 35070 ft 423 kts 186°
2026-05-07 11:04 63.82003 25.40350 35067 ft 423 kts 186°
2026-05-07 11:05 63.76113 25.40030 35072 ft 423 kts 186°
2026-05-07 11:05 63.70230 25.39716 35073 ft 423 kts 186°
2026-05-07 11:06 63.64346 25.39399 35063 ft 422 kts 187°
2026-05-07 11:06 63.58468 25.39099 35069 ft 422 kts 187°
2026-05-07 11:07 63.52628 25.38793 35035 ft 422 kts 187°
2026-05-07 11:07 63.46766 25.38494 35062 ft 421 kts 187°
2026-05-07 11:08 63.40903 25.38191 35070 ft 420 kts 187°
2026-05-07 11:08 63.35059 25.37894 35041 ft 420 kts 187°
2026-05-07 11:09 63.29224 25.37597 35049 ft 419 kts 187°
2026-05-07 11:09 63.23400 25.37301 35051 ft 418 kts 187°
2026-05-07 11:10 63.17578 25.36999 35046 ft 418 kts 187°
2026-05-07 11:10 63.11757 25.36701 35047 ft 418 kts 187°
2026-05-07 11:11 63.05937 25.36413 35046 ft 418 kts 187°
2026-05-07 11:11 63.00157 25.36118 35015 ft 418 kts 187°
2026-05-07 11:12 62.94348 25.35819 35026 ft 417 kts 187°
2026-05-07 11:12 62.88535 25.35526 35034 ft 417 kts 187°
2026-05-07 11:13 62.82736 25.35247 35039 ft 417 kts 187°
2026-05-07 11:13 62.76940 25.34954 35020 ft 416 kts 188°
2026-05-07 11:14 62.71144 25.34679 35042 ft 416 kts 187°
2026-05-07 11:14 62.65362 25.34401 35024 ft 415 kts 188°
2026-05-07 11:15 62.59595 25.34105 35033 ft 414 kts 188°
2026-05-07 11:15 62.53826 25.33835 35038 ft 414 kts 188°
2026-05-07 11:16 62.48102 25.33561 35049 ft 414 kts 188°
2026-05-07 11:16 62.42343 25.33290 35052 ft 414 kts 188°
2026-05-07 11:17 62.36584 25.33013 34990 ft 414 kts 188°
2026-05-07 11:17 62.33714 25.32880 34752 ft 411 kts 188°
2026-05-07 11:17 62.30867 25.32754 34525 ft 408 kts 188°
2026-05-07 11:18 62.28038 25.32627 34293 ft 405 kts 188°
2026-05-07 11:18 62.25247 25.32495 34061 ft 398 kts 188°
2026-05-07 11:18 62.22495 25.32362 33792 ft 394 kts 188°
2026-05-07 11:18 62.19769 25.32232 33516 ft 390 kts 188°
2026-05-07 11:19 62.17071 25.32075 33253 ft 386 kts 189°
2026-05-07 11:19 62.14396 25.31935 32983 ft 382 kts 189°
2026-05-07 11:19 62.11745 25.31822 32725 ft 379 kts 189°
2026-05-07 11:19 62.09124 25.31719 32455 ft 375 kts 189°
2026-05-07 11:20 62.06560 25.31617 32147 ft 371 kts 189°
2026-05-07 11:20 62.03995 25.31507 31888 ft 365 kts 190°
2026-05-07 11:20 62.01468 25.31388 31592 ft 360 kts 190°
2026-05-07 11:20 61.98973 25.31270 31332 ft 356 kts 190°
2026-05-07 11:21 61.96511 25.31152 31089 ft 353 kts 191°
2026-05-07 11:21 61.94064 25.31034 30846 ft 349 kts 191°
2026-05-07 11:21 61.91640 25.30918 30593 ft 346 kts 191°
2026-05-07 11:21 61.89246 25.30804 30345 ft 343 kts 191°
2026-05-07 11:22 61.86874 25.30692 30102 ft 339 kts 191°
2026-05-07 11:22 61.84553 25.30584 29813 ft 337 kts 191°
2026-05-07 11:22 61.82215 25.30476 29518 ft 335 kts 191°
2026-05-07 11:22 61.79889 25.30372 29230 ft 334 kts 191°
2026-05-07 11:23 61.77568 25.30264 28948 ft 333 kts 191°
2026-05-07 11:23 61.75251 25.30152 28664 ft 332 kts 191°
2026-05-07 11:23 61.72944 25.30045 28377 ft 330 kts 191°
2026-05-07 11:23 61.70648 25.29942 28081 ft 329 kts 191°
2026-05-07 11:24 61.68352 25.29836 27786 ft 330 kts 191°
2026-05-07 11:24 61.66060 25.29729 27514 ft 329 kts 191°
2026-05-07 11:24 61.63769 25.29622 27245 ft 329 kts 191°
2026-05-07 11:24 61.61482 25.29513 26978 ft 328 kts 191°
2026-05-07 11:25 61.59206 25.29403 26712 ft 327 kts 190°
2026-05-07 11:25 61.56932 25.29298 26454 ft 326 kts 190°
2026-05-07 11:25 61.54663 25.29192 26127 ft 326 kts 190°
2026-05-07 11:25 61.52404 25.29086 25724 ft 324 kts 190°
2026-05-07 11:26 61.50153 25.28982 25309 ft 323 kts 190°
2026-05-07 11:26 61.47914 25.28879 24897 ft 322 kts 190°
2026-05-07 11:26 61.45704 25.28776 24475 ft 321 kts 190°
2026-05-07 11:26 61.43477 25.28670 24048 ft 320 kts 190°
2026-05-07 11:27 61.41254 25.28562 23611 ft 319 kts 190°
2026-05-07 11:27 61.39038 25.28457 23131 ft 318 kts 189°
2026-05-07 11:27 61.36828 25.28355 22680 ft 317 kts 189°
2026-05-07 11:27 61.34625 25.28258 22238 ft 316 kts 189°
2026-05-07 11:28 61.32427 25.28160 21849 ft 316 kts 189°
2026-05-07 11:28 61.30231 25.28063 21440 ft 315 kts 188°
2026-05-07 11:28 61.28045 25.27962 21023 ft 314 kts 188°
2026-05-07 11:28 61.25862 25.27862 20610 ft 313 kts 188°
2026-05-07 11:29 61.23689 25.27763 20191 ft 312 kts 188°
2026-05-07 11:29 61.21519 25.27664 19788 ft 311 kts 188°
2026-05-07 11:29 61.19388 25.27567 19390 ft 310 kts 188°
2026-05-07 11:29 61.17235 25.27469 18986 ft 309 kts 188°
2026-05-07 11:30 61.15086 25.27370 18592 ft 309 kts 188°
2026-05-07 11:30 61.12936 25.27269 18172 ft 308 kts 188°
2026-05-07 11:30 61.10791 25.27169 17750 ft 307 kts 187°
2026-05-07 11:30 61.08659 25.27074 17360 ft 305 kts 187°
2026-05-07 11:31 61.06547 25.26981 16976 ft 303 kts 187°
2026-05-07 11:31 61.04441 25.26890 16585 ft 302 kts 187°
2026-05-07 11:31 61.02341 25.26800 16215 ft 302 kts 187°
2026-05-07 11:31 61.00248 25.26708 15841 ft 301 kts 186°
2026-05-07 11:32 60.96071 25.26528 15091 ft 299 kts 186°
2026-05-07 11:32 60.93988 25.26478 14715 ft 300 kts 184°
2026-05-07 11:32 60.91901 25.26560 14347 ft 300 kts 183°
2026-05-07 11:33 60.89812 25.26710 13974 ft 300 kts 182°
2026-05-07 11:33 60.87747 25.26881 13572 ft 301 kts 182°
2026-05-07 11:33 60.85661 25.27054 13190 ft 299 kts 182°
2026-05-07 11:33 60.83670 25.27211 12829 ft 298 kts 181°
2026-05-07 11:34 60.81604 25.27359 12444 ft 297 kts 181°
2026-05-07 11:34 60.79547 25.27490 12059 ft 295 kts 181°
2026-05-07 11:34 60.77494 25.27617 11673 ft 295 kts 181°
2026-05-07 11:34 60.75446 25.27748 11283 ft 294 kts 180°
2026-05-07 11:35 60.73404 25.27881 10875 ft 293 kts 180°
2026-05-07 11:35 60.71374 25.27804 10486 ft 291 kts 190°
2026-05-07 11:35 60.69474 25.26637 10099 ft 288 kts 207°
2026-05-07 11:35 60.67826 25.24345 9659 ft 287 kts 224°
2026-05-07 11:36 60.66534 25.21245 9175 ft 287 kts 232°
2026-05-07 11:36 60.65305 25.18038 8749 ft 287 kts 232°
2026-05-07 11:36 60.64071 25.14838 8302 ft 286 kts 232°
2026-05-07 11:36 60.62763 25.11799 7863 ft 285 kts 219°
2026-05-07 11:37 60.61018 25.09932 7399 ft 285 kts 195°
2026-05-07 11:37 60.59052 25.09710 6932 ft 286 kts 170°
2026-05-07 11:37 60.57144 25.10606 6676 ft 272 kts 172°
2026-05-07 11:37 60.55383 25.10116 6491 ft 248 kts 208°
2026-05-07 11:38 60.54076 25.08024 6124 ft 236 kts 229°
2026-05-07 11:38 60.53145 25.05315 5572 ft 233 kts 239°
2026-05-07 11:38 60.52274 25.02545 5017 ft 232 kts 236°
2026-05-07 11:38 60.51361 24.99863 4512 ft 228 kts 235°
2026-05-07 11:39 60.50461 24.97285 4238 ft 217 kts 235°
2026-05-07 11:39 60.49617 24.94870 4065 ft 203 kts 235°
2026-05-07 11:39 60.48812 24.92562 3711 ft 199 kts 234°
2026-05-07 11:39 60.48023 24.90301 3307 ft 198 kts 234°
2026-05-07 11:40 60.47200 24.88095 3043 ft 189 kts 225°
2026-05-07 11:40 60.46199 24.86564 2923 ft 174 kts 206°
2026-05-07 11:40 60.45102 24.85802 2774 ft 161 kts 189°
2026-05-07 11:40 60.44018 24.85716 2582 ft 152 kts 173°
2026-05-07 11:41 60.43011 24.86206 2415 ft 147 kts 158°
2026-05-07 11:41 60.42099 24.87104 2233 ft 145 kts 153°
2026-05-07 11:41 60.41214 24.88018 2063 ft 142 kts 153°
2026-05-07 11:41 60.40340 24.88919 1855 ft 139 kts 153°
2026-05-07 11:42 60.39478 24.89807 1663 ft 138 kts 154°
2026-05-07 11:42 60.38624 24.90688 1464 ft 138 kts 153°
2026-05-07 11:42 60.37774 24.91564 1285 ft 137 kts 154°
2026-05-07 11:42 60.36932 24.92431 1091 ft 135 kts 154°
2026-05-07 11:43 60.36096 24.93295 879 ft 135 kts 153°
2026-05-07 11:43 60.35271 24.94149 689 ft 134 kts 154°
2026-05-07 11:43 60.34452 24.95026 551 ft 133 kts 153°
2026-05-07 11:43 60.33635 24.95857 357 ft 131 kts 154°
2026-05-07 11:44 60.32815 24.96680 182 ft 124 kts 154°
2026-05-07 11:44 60.32154 24.97348 155 ft 78 kts 153°
2026-05-07 11:44 60.31907 24.97603 153 ft 26 kts 153°
2026-05-07 11:44 60.31780 24.97726 152 ft 15 kts 159°
2026-05-07 11:45 60.31690 24.97682 153 ft 13 kts 230°
2026-05-07 11:45 60.31651 24.97544 158 ft 8 kts 243°
2026-05-07 11:45 60.31635 24.97482 161 ft 4 kts 244°
2026-05-07 11:45 60.31628 24.97428 164 ft 6 kts 272°
2026-05-07 11:46 60.31690 24.97329 166 ft 14 kts 334°
2026-05-07 11:46 60.31772 24.97247 166 ft 12 kts 333°
2026-05-07 11:46 60.31844 24.97171 166 ft 12 kts 332°
2026-05-07 11:46 60.31922 24.97090 166 ft 7 kts 333°
2026-05-07 11:47 60.31963 24.97048 166 ft 6 kts 333°
2026-05-07 11:47 60.31968 24.97005 166 ft 2 kts 233°
2026-05-07 11:47 60.31958 24.96973 166 ft 5 kts 240°
2026-05-07 11:47 60.31947 24.96928 166 ft 2 kts 243°
2026-05-07 11:48 60.31945 24.96921 166 ft 0 kts 243°
2026-05-07 11:49 60.31945 24.96922 166 ft 0 kts 243°
2026-05-07 12:16 60.31945 24.96923 167 ft 0 kts 243°
2026-05-07 12:32 60.31946 24.96923 167 ft 0 kts 243°